Location: Castillon
(43.1358°N, 0.8654°E)
Time: 19:03:23
(UTC+00:00)

NOSS 3-1 (A) - Pass Details

Date: 24 January 2021
Orbit: 735 x 1477 km, 63.4° (Epoch: 26 February)

Event Time Altitude Azimuth Distance (km) Brightness Sun altitude
Rises 18:47:19 0° 324° (NW) 3,930 7.0 -19.8°
Reaches altitude 10° 18:49:52 10° 328° (NNW) 3,070 6.4 -20.2°
Maximum altitude 18:57:22 65° 50° (NE) 1,419 4.1 -21.6°
Enters shadow 19:02:48 25° 126° (SE) 2,509 5.2 -22.6°
